TimeCDT,TemperatureF,Dew PointF,Humidity,Sea Level PressureIn,VisibilityMPH,Wind Direction,Wind SpeedMPH,Gust SpeedMPH,PrecipitationIn,Events,Conditions,WindDirDegrees,DateUTC
12:15 AM,87.1,68.0,53,29.99,10.0,SE,12.7,17.3,N/A,,Clear,130,2013-07-08 05:15:00
12:35 AM,86.7,67.8,53,29.99,10.0,ESE,9.2,17.3,N/A,,Clear,120,2013-07-08 05:35:00
12:55 AM,86.2,67.6,54,29.99,10.0,SE,9.2,-,N/A,,Clear,130,2013-07-08 05:55:00
1:15 AM,85.6,67.6,55,29.99,10.0,SE,5.8,-,N/A,,Clear,130,2013-07-08 06:15:00
1:35 AM,84.9,67.6,56,30.00,10.0,SE,3.5,-,N/A,,Clear,130,2013-07-08 06:35:00
1:55 AM,84.4,67.6,57,30.00,10.0,ESE,4.6,-,N/A,,Clear,120,2013-07-08 06:55:00
2:15 AM,83.7,68.0,59,30.01,10.0,ESE,4.6,-,N/A,,Clear,120,2013-07-08 07:15:00
2:35 AM,83.7,68.7,61,30.01,10.0,SE,4.6,-,N/A,,Clear,140,2013-07-08 07:35:00
2:55 AM,82.8,68.9,63,30.01,10.0,ESE,4.6,-,N/A,,Clear,120,2013-07-08 07:55:00
3:15 AM,82.4,69.1,64,30.01,10.0,SE,5.8,-,N/A,,Clear,130,2013-07-08 08:15:00
3:35 AM,82.0,69.3,65,30.01,10.0,SE,5.8,-,N/A,,Clear,130,2013-07-08 08:35:00
3:55 AM,81.5,69.4,67,30.02,10.0,SE,5.8,-,N/A,,Clear,130,2013-07-08 08:55:00
4:15 AM,81.0,69.8,69,30.02,10.0,SE,6.9,-,N/A,,Clear,140,2013-07-08 09:15:00
4:35 AM,80.6,69.8,70,30.02,10.0,SE,6.9,-,N/A,,Clear,130,2013-07-08 09:35:00
4:55 AM,80.2,70.2,71,30.03,10.0,SE,6.9,-,N/A,,Clear,130,2013-07-08 09:55:00
5:15 AM,79.7,70.3,73,30.04,10.0,SE,5.8,-,N/A,,Clear,130,2013-07-08 10:15:00
5:55 AM,79.0,70.9,76,30.05,10.0,SE,6.9,-,N/A,,Clear,130,2013-07-08 10:55:00
6:15 AM,78.8,71.1,77,30.05,10.0,SE,6.9,-,N/A,,Clear,130,2013-07-08 11:15:00
6:35 AM,78.4,71.2,78,30.05,10.0,SE,6.9,-,N/A,,Clear,130,2013-07-08 11:35:00
6:55 AM,78.3,71.2,79,30.06,10.0,SE,6.9,-,N/A,,Clear,130,2013-07-08 11:55:00
7:15 AM,78.8,71.6,78,30.07,10.0,SE,6.9,-,N/A,,Clear,130,2013-07-08 12:15:00
7:35 AM,79.3,71.8,78,30.08,10.0,SE,5.8,-,N/A,,Clear,130,2013-07-08 12:35:00
7:55 AM,80.8,72.1,75,30.08,10.0,SE,8.1,-,N/A,,Clear,140,2013-07-08 12:55:00
8:15 AM,81.5,72.0,73,30.09,10.0,SSE,9.2,-,N/A,,Scattered Clouds,150,2013-07-08 13:15:00
8:35 AM,82.6,72.0,70,30.10,10.0,SSE,8.1,-,N/A,,Scattered Clouds,150,2013-07-08 13:35:00
8:55 AM,84.0,72.0,67,30.10,10.0,SSE,9.2,-,N/A,,Scattered Clouds,150,2013-07-08 13:55:00
9:15 AM,84.2,71.8,66,30.10,10.0,SSE,8.1,-,N/A,,Mostly Cloudy,150,2013-07-08 14:15:00
9:35 AM,85.5,71.6,63,30.10,10.0,SSE,10.4,-,N/A,,Mostly Cloudy,160,2013-07-08 14:35:00
9:55 AM,85.3,71.1,62,30.10,10.0,SSE,4.6,-,N/A,,Mostly Cloudy,150,2013-07-08 14:55:00
10:15 AM,86.7,71.1,59,30.10,10.0,SSE,5.8,-,N/A,,Mostly Cloudy,160,2013-07-08 15:15:00
10:35 AM,87.4,70.7,57,30.09,10.0,South,6.9,-,N/A,,Scattered Clouds,180,2013-07-08 15:35:00
10:55 AM,88.3,69.8,54,30.09,10.0,South,8.1,-,N/A,,Scattered Clouds,170,2013-07-08 15:55:00
11:15 AM,90.0,69.1,50,30.09,10.0,SE,8.1,-,N/A,,Scattered Clouds,140,2013-07-08 16:15:00
11:35 AM,91.2,68.7,47,30.09,10.0,SE,9.2,-,N/A,,Scattered Clouds,130,2013-07-08 16:35:00
11:55 AM,91.9,68.4,46,30.09,10.0,SSE,5.8,-,N/A,,Mostly Cloudy,150,2013-07-08 16:55:00
12:15 PM,90.9,67.1,45,30.08,10.0,SE,11.5,-,N/A,,Mostly Cloudy,140,2013-07-08 17:15:00
12:35 PM,92.5,66.4,42,30.08,10.0,SE,5.8,16.1,N/A,,Scattered Clouds,130,2013-07-08 17:35:00
12:55 PM,94.8,65.1,37,30.07,10.0,South,8.1,-,N/A,,Clear,170,2013-07-08 17:55:00
1:15 PM,95.2,65.7,38,30.07,10.0,SE,12.7,16.1,N/A,,Scattered Clouds,140,2013-07-08 18:15:00
1:35 PM,94.6,65.5,38,30.06,10.0,South,10.4,-,N/A,,Scattered Clouds,190,2013-07-08 18:35:00
1:55 PM,96.3,65.3,36,30.06,10.0,SE,9.2,18.4,N/A,,Scattered Clouds,130,2013-07-08 18:55:00
2:15 PM,96.1,64.6,35,30.05,10.0,East,10.4,-,N/A,,Clear,100,2013-07-08 19:15:00
2:35 PM,96.6,64.4,34,30.04,10.0,ESE,12.7,16.1,N/A,,Scattered Clouds,120,2013-07-08 19:35:00
2:55 PM,96.8,63.7,33,30.04,10.0,SE,6.9,16.1,N/A,,Scattered Clouds,130,2013-07-08 19:55:00
3:15 PM,96.8,63.7,33,30.03,10.0,ESE,10.4,-,N/A,,Mostly Cloudy,120,2013-07-08 20:15:00
3:35 PM,95.2,62.8,34,30.03,10.0,SE,3.5,-,N/A,,Mostly Cloudy,130,2013-07-08 20:35:00
3:55 PM,95.9,63.3,34,30.02,10.0,ESE,8.1,-,N/A,,Mostly Cloudy,120,2013-07-08 20:55:00
4:15 PM,95.9,62.8,33,30.02,10.0,SE,9.2,-,N/A,,Overcast,140,2013-07-08 21:15:00
4:35 PM,97.9,61.9,30,30.02,10.0,SE,6.9,-,N/A,,Scattered Clouds,130,2013-07-08 21:35:00
4:55 PM,98.4,62.4,30,30.01,10.0,SSE,4.6,-,N/A,,Scattered Clouds,160,2013-07-08 21:55:00
5:15 PM,95.2,65.5,37,30.01,10.0,ESE,13.8,-,N/A,,Scattered Clouds,120,2013-07-08 22:15:00
5:35 PM,95.7,64.8,36,30.00,10.0,ESE,12.7,20.7,N/A,,Scattered Clouds,110,2013-07-08 22:35:00
5:55 PM,95.9,66.0,37,29.99,10.0,SE,16.1,23.0,N/A,,Mostly Cloudy,130,2013-07-08 22:55:00
6:15 PM,95.7,66.2,38,29.99,10.0,ESE,18.4,24.2,N/A,,Mostly Cloudy,120,2013-07-08 23:15:00
6:35 PM,94.1,66.2,40,30.00,10.0,SSE,16.1,-,N/A,,Scattered Clouds,150,2013-07-08 23:35:00
6:55 PM,93.9,66.6,40,30.00,10.0,SSE,16.1,23.0,N/A,,Clear,160,2013-07-08 23:55:00
7:15 PM,93.0,67.1,42,30.00,10.0,South,12.7,20.7,N/A,,Scattered Clouds,170,2013-07-09 00:15:00
7:35 PM,92.5,66.4,42,30.01,10.0,South,12.7,18.4,N/A,,Clear,170,2013-07-09 00:35:00
7:55 PM,92.3,65.7,41,30.01,10.0,SSE,10.4,-,N/A,,Clear,160,2013-07-09 00:55:00
8:15 PM,91.8,64.8,41,30.01,10.0,SSE,12.7,-,N/A,,Clear,150,2013-07-09 01:15:00
8:35 PM,90.7,63.7,41,30.02,10.0,South,9.2,-,N/A,,Clear,170,2013-07-09 01:35:00
8:55 PM,89.8,63.9,42,30.02,10.0,SSE,10.4,-,N/A,,Clear,160,2013-07-09 01:55:00
9:15 PM,89.1,64.4,44,30.03,10.0,SSE,10.4,-,N/A,,Clear,160,2013-07-09 02:15:00
9:35 PM,88.3,65.3,46,30.04,10.0,SSE,11.5,-,N/A,,Clear,160,2013-07-09 02:35:00
9:55 PM,87.8,65.3,47,30.05,10.0,SSE,8.1,-,N/A,,Clear,150,2013-07-09 02:55:00
10:15 PM,86.9,65.5,49,30.07,10.0,South,9.2,-,N/A,,Clear,170,2013-07-09 03:15:00
10:35 PM,86.2,65.8,51,30.08,10.0,South,6.9,-,N/A,,Clear,170,2013-07-09 03:35:00
10:55 PM,85.6,64.9,50,30.09,10.0,South,8.1,-,N/A,,Clear,170,2013-07-09 03:55:00
11:15 PM,85.5,62.6,46,30.10,10.0,South,8.1,-,N/A,,Clear,170,2013-07-09 04:15:00
11:35 PM,84.7,61.7,46,30.10,10.0,SSE,6.9,-,N/A,,Clear,160,2013-07-09 04:35:00
11:55 PM,84.2,61.7,47,30.10,10.0,South,6.9,-,N/A,,Clear,170,2013-07-09 04:55:00